| time (UTC) | temp C | wind direction | speed KPH | gust KPH | rain 1hr cm | rain 24hr cm | rain mn cm | humidity % | barometer mb |
| 20260507170903 | 12 | 144 | 3.2 | 12.9 | 0.00 | 0.00 | 0.00 | 67 | 990.8 |
| 20260507170003 | 12 | 144 | 3.2 | 8.0 | 0.00 | 0.00 | 0.00 | 66 | 990.8 |
| 20260507165403 | 13 | 144 | 1.6 | 8.0 | 0.00 | 0.00 | 0.00 | 65 | 990.8 |
| 20260507164718 | 13 | 144 | 3.2 | 6.4 | 0.00 | 0.00 | 0.00 | 64 | 990.7 |
| 20260507163603 | 13 | 144 | 3.2 | 8.0 | 0.00 | 0.00 | 0.00 | 62 | 990.6 |
| 20260507162703 | 13 | 144 | 3.2 | 8.0 | 0.00 | 0.00 | 0.00 | 61 | 990.6 |
| 20260507161803 | 13 | 144 | 4.8 | 11.3 | 0.00 | 0.00 | 0.00 | 60 | 990.5 |
| 20260507160903 | 13 | 143 | 3.2 | 11.3 | 0.00 | 0.00 | 0.00 | 61 | 990.6 |
| 20260507160014 | 13 | 143 | 3.2 | 11.3 | 0.00 | 0.00 | 0.00 | 60 | 990.7 |
| 20260507155403 | 13 | 143 | 3.2 | 8.0 | 0.00 | 0.00 | 0.00 | 61 | 990.7 |
| 20260507154503 | 13 | 143 | 4.8 | 11.3 | 0.00 | 0.00 | 0.00 | 61 | 990.7 |
| 20260507153603 | 13 | 143 | 4.8 | 12.9 | 0.00 | 0.00 | 0.00 | 59 | 990.8 |
| 20260507152703 | 13 | 146 | 6.4 | 16.1 | 0.00 | 0.00 | 0.00 | 58 | 991.0 |
| 20260507151803 | 13 | 148 | 6.4 | 16.1 | 0.00 | 0.00 | 0.00 | 58 | 990.8 |
| 20260507150903 | 13 | 140 | 6.4 | 16.1 | 0.00 | 0.00 | 0.00 | 58 | 990.9 |
| 20260507150003 | 13 | 160 | 4.8 | 19.3 | 0.00 | 0.00 | 0.00 | 58 | 990.9 |
| 20260507145403 | 13 | 169 | 4.8 | 11.3 | 0.00 | 0.00 | 0.00 | 60 | 991.0 |
| 20260507144503 | 13 | 171 | 6.4 | 12.9 | 0.00 | 0.00 | 0.00 | 62 | 991.0 |
| 20260507143603 | 13 | 171 | 6.4 | 12.9 | 0.00 | 0.00 | 0.00 | 61 | 991.1 |
| 20260507142918 | 13 | 162 | 6.4 | 12.9 | 0.00 | 0.00 | 0.00 | 62 | 991.3 |
| 20260507141803 | 13 | 186 | 6.4 | 16.1 | 0.00 | 0.00 | 0.00 | 63 | 991.4 |
| 20260507140903 | 13 | 201 | 6.4 | 16.1 | 0.00 | 0.00 | 0.00 | 63 | 991.4 |
| 20260507140003 | 13 | 167 | 6.4 | 17.7 | 0.00 | 0.00 | 0.00 | 63 | 991.6 |
| 20260507135403 | 13 | 152 | 6.4 | 17.7 | 0.00 | 0.00 | 0.00 | 62 | 991.7 |
| 20260507134503 | 13 | 139 | 6.4 | 16.1 | 0.00 | 0.00 | 0.00 | 62 | 991.5 |
| 20260507133603 | 13 | 147 | 9.7 | 16.1 | 0.00 | 0.00 | 0.00 | 63 | 991.7 |
| 20260507132703 | 13 | 181 | 9.7 | 20.9 | 0.00 | 0.00 | 0.00 | 63 | 991.8 |
| 20260507132017 | 13 | 170 | 8.0 | 20.9 | 0.00 | 0.00 | 0.00 | 63 | 991.7 |
| 20260507130903 | 13 | 150 | 8.0 | 20.9 | 0.00 | 0.00 | 0.00 | 65 | 991.5 |
| 20260507130003 | 13 | 150 | 8.0 | 17.7 | 0.00 | 0.00 | 0.00 | 63 | 991.7 |
| 20260507125617 | 13 | 144 | 8.0 | 16.1 | 0.00 | 0.00 | 0.00 | 65 | 991.8 |
| 20260507124503 | 13 | 140 | 6.4 | 17.7 | 0.00 | 0.00 | 0.00 | 68 | 991.8 |
| 20260507123603 | 13 | 147 | 6.4 | 22.5 | 0.00 | 0.00 | 0.00 | 69 | 991.9 |
| 20260507122917 | 12 | 136 | 6.4 | 17.7 | 0.00 | 0.00 | 0.00 | 68 | 991.8 |
| 20260507122018 | 12 | 129 | 6.4 | 17.7 | 0.00 | 0.00 | 0.00 | 70 | 991.8 |
| 20260507120903 | 12 | 145 | 6.4 | 16.1 | 0.00 | 0.00 | 0.00 | 71 | 991.9 |
| 20260507120003 | 11 | 144 | 6.4 | 16.1 | 0.00 | 0.00 | 0.00 | 73 | 991.9 |
| 20260507115616 | 11 | 143 | 6.4 | 16.1 | 0.00 | 0.00 | 0.00 | 72 | 992.1 |
| 20260507114503 | 11 | 156 | 6.4 | 17.7 | 0.00 | 0.00 | 0.00 | 73 | 991.9 |
| 20260507113603 | 11 | 148 | 6.4 | 17.7 | 0.00 | 0.00 | 0.00 | 74 | 992.0 |
| 20260507112703 | 11 | 147 | 6.4 | 17.7 | 0.00 | 0.00 | 0.00 | 77 | 992.1 |
| 20260507111803 | 10 | 148 | 6.4 | 14.5 | 0.00 | 0.00 | 0.00 | 79 | 992.2 |
| 20260507110903 | 10 | 153 | 6.4 | 14.5 | 0.00 | 0.00 | 0.00 | 79 | 992.1 |
| 20260507110003 | 10 | 152 | 6.4 | 17.7 | 0.00 | 0.00 | 0.00 | 79 | 992.1 |
| 20260507105403 | 10 | 146 | 8.0 | 19.3 | 0.00 | 0.00 | 0.00 | 81 | 992.3 |
| 20260507104503 | 9 | 146 | 6.4 | 19.3 | 0.00 | 0.00 | 0.00 | 83 | 992.3 |
| 20260507103603 | 9 | 136 | 6.4 | 17.7 | 0.00 | 0.00 | 0.00 | 84 | 992.4 |
| 20260507102703 | 8 | 136 | 8.0 | 17.7 | 0.00 | 0.00 | 0.00 | 85 | 992.4 |
| 20260507102017 | 8 | 134 | 6.4 | 17.7 | 0.00 | 0.00 | 0.00 | 85 | 992.4 |
| 20260507100903 | 8 | 133 | 6.4 | 14.5 | 0.00 | 0.00 | 0.00 | 87 | 992.4 |
| 20260507100218 | 8 | 132 | 6.4 | 16.1 | 0.00 | 0.00 | 0.00 | 86 | 992.3 |
| 20260507095618 | 8 | 131 | 6.4 | 16.1 | 0.00 | 0.00 | 0.00 | 87 | 992.3 |
| 20260507094503 | 8 | 128 | 6.4 | 16.1 | 0.00 | 0.00 | 0.00 | 87 | 992.2 |
| 20260507093603 | 7 | 127 | 6.4 | 12.9 | 0.00 | 0.00 | 0.00 | 88 | 992.2 |
| 20260507092703 | 7 | 126 | 4.8 | 12.9 | 0.00 | 0.00 | 0.00 | 88 | 992.1 |
| 20260507092017 | 7 | 126 | 6.4 | 14.5 | 0.00 | 0.00 | 0.00 | 89 | 992.0 |
| 20260507090903 | 7 | 128 | 8.0 | 19.3 | 0.00 | 0.00 | 0.00 | 89 | 992.2 |
| 20260507090004 | 7 | 131 | 6.4 | 14.5 | 0.00 | 0.00 | 0.00 | 89 | 992.2 |
| 20260507085403 | 7 | 131 | 8.0 | 16.1 | 0.00 | 0.00 | 0.00 | 90 | 992.1 |
| 20260507084503 | 7 | 132 | 6.4 | 14.5 | 0.00 | 0.00 | 0.00 | 90 | 992.1 |
| 20260507083603 | 6 | 133 | 6.4 | 14.5 | 0.00 | 0.00 | 0.00 | 90 | 992.2 |
| 20260507082703 | 6 | 133 | 6.4 | 17.7 | 0.00 | 0.00 | 0.00 | 91 | 992.2 |
| 20260507081803 | 6 | 135 | 6.4 | 16.1 | 0.00 | 0.00 | 0.00 | 91 | 992.2 |
| 20260507080903 | 6 | 135 | 8.0 | 16.1 | 0.00 | 0.00 | 0.00 | 91 | 992.2 |
| 20260507080017 | 6 | 132 | 8.0 | 16.1 | 0.00 | 0.00 | 0.00 | 91 | 992.1 |
| 20260507075403 | 6 | 127 | 6.4 | 17.7 | 0.00 | 0.00 | 0.00 | 91 | 992.2 |
| 20260507074503 | 6 | 125 | 6.4 | 14.5 | 0.00 | 0.00 | 0.00 | 91 | 992.0 |
| 20260507073603 | 6 | 128 | 6.4 | 17.7 | 0.00 | 0.00 | 0.00 | 92 | 992.1 |
| 20260507072703 | 5 | 126 | 6.4 | 16.1 | 0.00 | 0.00 | 0.00 | 92 | 992.0 |
| 20260507072016 | 5 | 127 | 6.4 | 12.9 | 0.00 | 0.00 | 0.00 | 92 | 992.1 |
| 20260507070903 | 5 | 119 | 8.0 | 19.3 | 0.00 | 0.00 | 0.00 | 92 | 991.8 |
| 20260507070005 | 5 | 116 | 8.0 | 19.3 | 0.00 | 0.00 | 0.00 | 92 | 991.9 |
| 20260507065403 | 5 | 117 | 6.4 | 19.3 | 0.00 | 0.00 | 0.00 | 92 | 991.9 |
| 20260507064718 | 5 | 117 | 6.4 | 14.5 | 0.00 | 0.00 | 0.00 | 92 | 991.8 |
| 20260507063817 | 5 | 117 | 8.0 | 16.1 | 0.00 | 0.00 | 0.00 | 92 | 991.8 |
| 20260507062703 | 5 | 121 | 8.0 | 17.7 | 0.00 | 0.00 | 0.00 | 92 | 991.8 |
| 20260507061803 | 5 | 124 | 8.0 | 17.7 | 0.00 | 0.00 | 0.00 | 92 | 991.9 |
| 20260507060903 | 5 | 124 | 8.0 | 17.7 | 0.00 | 0.00 | 0.00 | 92 | 991.9 |
| 20260507060003 | 5 | 119 | 8.0 | 17.7 | 0.00 | 0.00 | 0.00 | 92 | 991.8 |
| 20260507055403 | 5 | 118 | 8.0 | 19.3 | 0.00 | 0.00 | 0.00 | 92 | 991.8 |
| 20260507054503 | 5 | 118 | 8.0 | 16.1 | 0.00 | 0.00 | 0.00 | 92 | 991.8 |
| 20260507053817 | 4 | 119 | 6.4 | 16.1 | 0.00 | 0.00 | 0.00 | 92 | 991.7 |
| 20260507052703 | 4 | 119 | 6.4 | 16.1 | 0.00 | 0.00 | 0.00 | 92 | 991.7 |
| 20260507052017 | 4 | 120 | 6.4 | 16.1 | 0.00 | 0.00 | 0.00 | 91 | 991.7 |
| 20260507050903 | 4 | 118 | 8.0 | 17.7 | 0.00 | 0.00 | 0.00 | 92 | 991.8 |
| 20260507050003 | 4 | 119 | 6.4 | 16.1 | 0.00 | 0.00 | 0.00 | 92 | 991.7 |
| 20260507045403 | 4 | 119 | 6.4 | 14.5 | 0.00 | 0.00 | 0.00 | 92 | 991.9 |
| 20260507044503 | 4 | 121 | 8.0 | 16.1 | 0.00 | 0.00 | 0.00 | 91 | 991.7 |
| 20260507043603 | 4 | 122 | 6.4 | 19.3 | 0.00 | 0.00 | 0.00 | 92 | 991.8 |
| 20260507042703 | 4 | 118 | 6.4 | 20.9 | 0.00 | 0.00 | 0.00 | 92 | 991.7 |
| 20260507042017 | 4 | 117 | 6.4 | 12.9 | 0.00 | 0.00 | 0.00 | 91 | 991.7 |
| 20260507041116 | 4 | 115 | 8.0 | 17.7 | 0.00 | 0.00 | 0.00 | 91 | 991.6 |
| 20260507040003 | 4 | 117 | 8.0 | 16.1 | 0.00 | 0.00 | 0.00 | 92 | 991.6 |
| 20260507035403 | 4 | 121 | 8.0 | 17.7 | 0.00 | 0.00 | 0.00 | 92 | 991.7 |
| 20260507034503 | 4 | 119 | 6.4 | 19.3 | 0.00 | 0.00 | 0.00 | 92 | 991.7 |
| 20260507033603 | 4 | 118 | 6.4 | 14.5 | 0.00 | 0.00 | 0.00 | 92 | 991.7 |
| 20260507032917 | 4 | 117 | 6.4 | 16.1 | 0.00 | 0.00 | 0.00 | 92 | 991.7 |
| 20260507032017 | 4 | 117 | 6.4 | 16.1 | 0.00 | 0.00 | 0.00 | 92 | 991.7 |
| 20260507031118 | 4 | 117 | 6.4 | 14.5 | 0.00 | 0.00 | 0.00 | 91 | 991.8 |
| 20260507030003 | 4 | 117 | 6.4 | 16.1 | 0.00 | 0.00 | 0.00 | 91 | 991.7 |
| 20260507025403 | 4 | 117 | 8.0 | 17.7 | 0.00 | 0.00 | 0.00 | 91 | 991.8 |
| 20260507024503 | 4 | 117 | 6.4 | 16.1 | 0.00 | 0.00 | 0.00 | 91 | 991.7 |
| 20260507023818 | 4 | 115 | 6.4 | 16.1 | 0.00 | 0.00 | 0.00 | 91 | 991.7 |
| 20260507022703 | 4 | 113 | 6.4 | 16.1 | 0.00 | 0.00 | 0.00 | 91 | 991.7 |
| 20260507022016 | 5 | 110 | 6.4 | 17.7 | 0.00 | 0.00 | 0.00 | 91 | 991.7 |
| 20260507021118 | 5 | 109 | 6.4 | 17.7 | 0.00 | 0.00 | 0.00 | 91 | 991.8 |
| 20260507020003 | 5 | 109 | 6.4 | 14.5 | 0.00 | 0.00 | 0.00 | 91 | 991.6 |
| 20260507015403 | 5 | 111 | 6.4 | 14.5 | 0.00 | 0.00 | 0.00 | 91 | 991.9 |
| 20260507014503 | 5 | 110 | 6.4 | 19.3 | 0.00 | 0.00 | 0.00 | 90 | 991.8 |
| 20260507013817 | 5 | 107 | 6.4 | 14.5 | 0.00 | 0.00 | 0.00 | 90 | 992.0 |
| 20260507012703 | 5 | 109 | 8.0 | 16.1 | 0.00 | 0.00 | 0.00 | 90 | 991.8 |
| 20260507011803 | 5 | 113 | 8.0 | 20.9 | 0.00 | 0.00 | 0.00 | 90 | 992.0 |
| 20260507010903 | 5 | 106 | 8.0 | 20.9 | 0.00 | 0.00 | 0.00 | 90 | 992.0 |
| 20260507010003 | 5 | 94 | 8.0 | 20.9 | 0.00 | 0.00 | 0.00 | 90 | 992.1 |
| 20260507005403 | 5 | 101 | 8.0 | 20.9 | 0.00 | 0.00 | 0.00 | 90 | 992.1 |
| 20260507004718 | 5 | 106 | 8.0 | 19.3 | 0.00 | 0.00 | 0.00 | 90 | 992.1 |
| 20260507003603 | 5 | 100 | 6.4 | 17.7 | 0.00 | 0.00 | 0.00 | 90 | 992.2 |
| 20260507002916 | 5 | 100 | 8.0 | 16.1 | 0.00 | 0.00 | 0.00 | 90 | 992.1 |
| 20260507001803 | 5 | 103 | 8.0 | 17.7 | 0.00 | 0.00 | 0.00 | 90 | 992.2 |
| 20260507000903 | 5 | 109 | 9.7 | 19.3 | 0.00 | 0.00 | 0.00 | 89 | 992.1 |
| 20260507000003 | 5 | 110 | 8.0 | 19.3 | 0.00 | 0.00 | 0.00 | 89 | 992.2 |
| 20260506235618 | 5 | 110 | 8.0 | 19.3 | 0.00 | 0.00 | 0.00 | 89 | 992.2 |
| 20260506234717 | 5 | 107 | 9.7 | 19.3 | 0.00 | 0.00 | 0.00 | 89 | 992.1 |
| 20260506233817 | 5 | 110 | 8.0 | 19.3 | 0.00 | 0.00 | 0.00 | 89 | 992.2 |
| 20260506232703 | 5 | 111 | 8.0 | 17.7 | 0.00 | 0.00 | 0.00 | 89 | 992.2 |
| 20260506231803 | 5 | 123 | 8.0 | 17.7 | 0.00 | 0.00 | 0.00 | 89 | 992.1 |
| 20260506230903 | 5 | 118 | 6.4 | 24.1 | 0.00 | 0.00 | 0.00 | 89 | 992.2 |
| 20260506230003 | 5 | 107 | 6.4 | 16.1 | 0.00 | 0.00 | 0.00 | 89 | 992.1 |
| 20260506225403 | 5 | 105 | 8.0 | 19.3 | 0.00 | 0.00 | 0.00 | 89 | 992.2 |
| 20260506224503 | 5 | 104 | 6.4 | 17.7 | 0.00 | 0.00 | 0.00 | 89 | 992.2 |
| 20260506223603 | 6 | 104 | 8.0 | 17.7 | 0.00 | 0.00 | 0.00 | 88 | 992.0 |
| 20260506222703 | 6 | 101 | 6.4 | 16.1 | 0.00 | 0.00 | 0.00 | 88 | 992.0 |
| 20260506221803 | 6 | 101 | 6.4 | 20.9 | 0.00 | 0.00 | 0.00 | 88 | 992.1 |
| 20260506220903 | 6 | 100 | 6.4 | 16.1 | 0.00 | 0.00 | 0.00 | 88 | 992.0 |
| 20260506220003 | 6 | 97 | 6.4 | 12.9 | 0.00 | 0.00 | 0.00 | 88 | 992.0 |
| 20260506215403 | 6 | 97 | 6.4 | 14.5 | 0.00 | 0.00 | 0.00 | 88 | 992.0 |
| 20260506214503 | 6 | 98 | 6.4 | 12.9 | 0.00 | 0.00 | 0.00 | 87 | 992.0 |
| 20260506213603 | 6 | 98 | 4.8 | 12.9 | 0.00 | 0.00 | 0.00 | 87 | 991.9 |
| 20260506212703 | 6 | 98 | 4.8 | 11.3 | 0.00 | 0.00 | 0.00 | 87 | 991.8 |
| 20260506211803 | 6 | 98 | 4.8 | 12.9 | 0.00 | 0.00 | 0.00 | 86 | 991.5 |
| 20260506210903 | 6 | 96 | 4.8 | 12.9 | 0.00 | 0.00 | 0.00 | 86 | 991.5 |
| 20260506210003 | 6 | 96 | 4.8 | 12.9 | 0.00 | 0.00 | 0.00 | 85 | 991.5 |
| 20260506205403 | 6 | 95 | 4.8 | 12.9 | 0.00 | 0.00 | 0.00 | 85 | 991.6 |
| 20260506204718 | 6 | 95 | 4.8 | 12.9 | 0.00 | 0.00 | 0.00 | 84 | 991.5 |
| 20260506203603 | 7 | 95 | 4.8 | 11.3 | 0.00 | 0.00 | 0.00 | 84 | 991.7 |
| 20260506202703 | 7 | 95 | 4.8 | 14.5 | 0.00 | 0.00 | 0.00 | 83 | 991.3 |
| 20260506201803 | 7 | 94 | 4.8 | 14.5 | 0.00 | 0.00 | 0.00 | 83 | 991.4 |
| 20260506200903 | 7 | 94 | 4.8 | 12.9 | 0.00 | 0.00 | 0.00 | 82 | 991.2 |
| 20260506200217 | 7 | 94 | 6.4 | 11.3 | 0.00 | 0.00 | 0.00 | 81 | 991.2 |
| 20260506195403 | 7 | 94 | 6.4 | 11.3 | 0.00 | 0.00 | 0.00 | 81 | 991.1 |
| 20260506194718 | 7 | 95 | 6.4 | 16.1 | 0.00 | 0.00 | 0.00 | 80 | 991.0 |
| 20260506193603 | 8 | 97 | 8.0 | 16.1 | 0.00 | 0.00 | 0.00 | 80 | 990.9 |
| 20260506192703 | 8 | 98 | 6.4 | 14.5 | 0.00 | 0.00 | 0.00 | 79 | 990.9 |
| 20260506191803 | 8 | 98 | 8.0 | 14.5 | 0.00 | 0.00 | 0.00 | 78 | 990.8 |
| 20260506190903 | 8 | 98 | 8.0 | 16.1 | 0.00 | 0.00 | 0.00 | 77 | 990.8 |
| 20260506190003 | 9 | 99 | 6.4 | 17.7 | 0.00 | 0.00 | 0.00 | 77 | 990.6 |
| 20260506185403 | 9 | 101 | 6.4 | 17.7 | 0.00 | 0.00 | 0.00 | 77 | 990.7 |
| 20260506184503 | 9 | 89 | 6.4 | 17.7 | 0.00 | 0.00 | 0.00 | 76 | 990.5 |
| 20260506183603 | 10 | 89 | 8.0 | 19.3 | 0.00 | 0.00 | 0.00 | 75 | 990.6 |
| 20260506182703 | 10 | 93 | 8.0 | 17.7 | 0.00 | 0.00 | 0.00 | 73 | 990.7 |
| 20260506181803 | 10 | 82 | 6.4 | 16.1 | 0.00 | 0.00 | 0.00 | 73 | 990.6 |
| 20260506180903 | 10 | 66 | 8.0 | 17.7 | 0.00 | 0.00 | 0.00 | 72 | 990.7 |
| 20260506180004 | 10 | 74 | 8.0 | 19.3 | 0.00 | 0.00 | 0.00 | 69 | 990.7 |
| 20260506175618 | 11 | 76 | 8.0 | 19.3 | 0.00 | 0.00 | 0.00 | 67 | 990.5 |
| 20260506174503 | 11 | 73 | 8.0 | 16.1 | 0.00 | 0.00 | 0.00 | 63 | 990.5 |
| 20260506173603 | 11 | 89 | 8.0 | 16.1 | 0.00 | 0.00 | 0.00 | 62 | 990.7 |
| 20260506172703 | 11 | 102 | 6.4 | 17.7 | 0.00 | 0.00 | 0.00 | 62 | 990.5 |
| 20260506171803 | 11 | 69 | 6.4 | 17.7 | 0.00 | 0.00 | 0.00 | 62 | 990.4 |